Regional Weather Roundup
Issued by NWS

Home | Current Version | Previous Version | Text Only | Print | Product List | Glossary On
Versions: 1 2 3 4 5 6 7 8 9 10 11 12 13 14 15 16 17 18 19 20 21 22 23 24 25 26 27
000
ASUS42 KTBW 280418
RWRFL
FLORIDA REGIONAL WEATHER ROUNDUP
NATIONAL WEATHER SERVICE TAMPA BAY RUSKIN FL
1200 AM EDT FRI JUL 28 2017

NOTE: "FAIR" INDICATES FEW OR NO CLOUDS BELOW 12,000 FEET WITH NO
SIGNIFICANT WEATHER AND/OR OBSTRUCTIONS TO VISIBILITY.

FLZ001>010-012>015-112-114-115-280500-
PANHANDLE FLORIDA

CITY           SKY/WX    TMP DP  RH WIND       PRES   REMARKS
PENSACOLA      CLEAR     79  75  87 CALM      29.96R
PENSACOLA NAS  CLEAR     77  75  93 CALM      29.95R
MILTON NAS     CLOUDY    74  74 100 CALM      29.97
CRESTVIEW      CLOUDY    77  72  84 NE3       29.98S
DUKE FIELD     PTCLDY    77  72  86 NE5       29.96S
VALPARAISO     PTCLDY    79  72  79 N3        29.96R
MARY ESTHER    CLEAR     79  73  81 NE3       29.94S
PANAMA CITY    FAIR      78  75  90 CALM      29.95S
TYNDALL AFB    CLEAR     82  78  89 CALM      29.96S
APALACHICOLA   CLEAR     76  76 100 CALM      29.96S

STATION/POSITION SKY/WX   TEMP    WIND        PRES    WAVE   SWELL
                          AIR SEA DIR/SP/G            HT/PER HT/PER
                          (F)     (DEG/KT/KT) (MB)    (FT/S) (FT/S)
30.1N   87.6W              85 87  150/  2/  4 1014.3S
29.2N   88.2W              86 87  230/  4/  6 1014.8
28.8N   86.0W              85 86  320/  6/  8 1014.6F   1/ 8
PANAMA CITY BEAC           83     350/  6/  9 1014.8R
TOWER C                    83                 1015.5R
28.5N   84.5W              84 86  300/  2/  4 1014.9R   1

$$
FLZ011-016>038-118-127-128-134-139-239-280500-
NORTH FLORIDA

CITY           SKY/WX    TMP DP  RH WIND       PRES   REMARKS
MARIANNA       PTCLDY    81  75  82 S5        29.95S
TALLAHASSEE    CLEAR     79  76  90 MISG      29.96F
PERRY          CLEAR     79  76  90 CALM      29.97S
LIVE OAK       CLEAR     77  77 100 CALM      29.97S
CROSS CITY     CLEAR     77  74  92 CALM      30.02R
LAKE CITY      FAIR      77  77 100 CALM      29.97S
GAINESVILLE    CLEAR     76  75  97 CALM      30.00R
WILLISTON      CLEAR     77  77 100 CALM      29.98S
PALATKA        FAIR      77  77 100 S5        29.98R
MAYPORT NAS    TSTM      76  74  93 W16G23    29.96S
JACKSONVILLE   TSTM      76  76 100 SE6       29.95F
JAX NAS        MOCLDY    78  74  87 N12       29.97R THUNDER
JAX CECIL      DRIZZLE   77  77 100 CALM      29.96S
FERNANDINA BEA CLOUDY    79  75  89 SW7       29.95F
ST AUGUSTINE   PTCLDY    79  75  87 S5        29.98R
PALM COAST     FAIR      77  74  90 S5        29.97S

STATION/POSITION SKY/WX   TEMP    WIND        PRES    WAVE   SWELL
                          AIR SEA DIR/SP/G            HT/PER HT/PER
                          (F)     (DEG/KT/KT) (MB)    (FT/S) (FT/S)
SHELL POINT      NOT AVBL
KEATON BEACH               83     350/  2/  3 1014.3R
CEDAR KEY                  84     320/  2/  3 1015.3R
FERNANDINA                 78 81  180/  2/  6 1014.9F
30.7N   81.3W                 79                N/A     2/ 4
MAYPORT                    76 78  280/ 15/ 23 1014.9S
31.4N   80.9W              81 81  220/ 10/ 12 1013.4F   2/ 4   2/ 9
ST AUGUSTINE               79 76  200/  5/  7 1015.0R

$$
FLZ040-043>046-052-053-057-058-063-144-280500-
INTERIOR CENTRAL FLORIDA

CITY           SKY/WX    TMP DP  RH WIND       PRES   REMARKS
OCALA          CLEAR     78  75  90 CALM      29.99R
THE VILLAGES     N/A     81  77  89 CALM      29.89S
LEESBURG       PTCLDY    81  77  88 CALM      29.99S
SANFORD        PTCLDY    77  73  87 E3        29.98S
ORLANDO EXEC   CLOUDY    79  74  84 CALM      29.98S
ORLANDO INTL   CLOUDY    78  76  93 CALM      29.99S
KISSIMMEE      CLOUDY    82  74  76 SW5       30.00S
WINTER HAVEN   MOCLDY    82  74  76 CALM      30.00S
LAKELAND       MOCLDY    79  73  83 CALM      29.99F
BARTOW         FAIR      77  77 100 SE3       29.99S
SEBRING        FAIR      83  75  78 CALM      29.99S
OKEECHOBEE     PTCLDY    77  73  88 S3        30.01S

$$
FLZ041-047-054-059-064-141-147-280500-
EAST CENTRAL FLORIDA

CITY           SKY/WX    TMP DP  RH WIND       PRES   REMARKS
DAYTONA BEACH  MOCLDY    77  74  90 S3        29.98S
DELAND         CLEAR     77  73  88 S5        29.98S
JFK SPACE CTR  CLOUDY    82  78  88 S6        29.97S
CAPE CANAVERAL CLOUDY    82  78  87 S9        29.97F
PATRICK AFB    CLOUDY    83  76  79 S10       29.98F
MELBOURNE      CLOUDY    83  76  79 S8        29.98F
VERO BEACH     CLOUDY    81  76  84 SW5       30.00R
FT PIERCE      MOCLDY    79  77  94 SW5       30.00R
STUART         PTCLDY    81  77  89 SE3       30.01F

STATION/POSITION SKY/WX   TEMP    WIND        PRES    WAVE   SWELL
                          AIR SEA DIR/SP/G            HT/PER HT/PER
                          (F)     (DEG/KT/KT) (MB)    (FT/S) (FT/S)
28.5N   80.2W              83 82  190/ 10/ 12 1016.7R   2/ 3   2/ 9
28.9N   78.5W              84 85  160/ 10/ 12 1015.5F   3/ 8   2/ 8
TRIDENT PIER               82 84  160/  9/ 11 1016.9F
28.4N   80.5W                 81                N/A     2/ 4
27.5N   80.2W                 81                N/A     2/10

$$
FLZ050-056-061-142-242-148-248-149-249-151-251-155-255-
160-260-280500-
WEST CENTRAL FLORIDA

CITY           SKY/WX    TMP DP  RH WIND       PRES   REMARKS
CRYSTAL RIVER  FAIR      77  73  88 CALM      29.98S
INVERNESS      FAIR      77  77 100 CALM      29.99S
BROOKSVILLE    PTCLDY    79  75  87 CALM      29.99S
CLEARWATER AIR FAIR      81  72  74 CALM      29.98S
ST PETE CLEARW MOCLDY    84  72  67 SW3       29.98S
TAMPA INTL     MOCLDY    84  72  67 SW6       29.98F
TAMPA EXEC     CLOUDY    79  75  89 CALM      29.99S
PLANT CITY     MOCLDY    81  77  89 CALM      30.01S
MACDILL AFB    PTCLDY    83  74  73 W3        29.98S
PETER O KNIGHT CLOUDY    86  75  70 CALM      29.98F HX  95
ST PETERSBURG  PTCLDY    87  72  60 W5        29.96F
SARASOTA       MOCLDY    84  75  74 W6        29.96F
VENICE         FAIR      82  77  83 SE9       30.00R

STATION/POSITION SKY/WX   TEMP    WIND        PRES    WAVE   SWELL
                          AIR SEA DIR/SP/G            HT/PER HT/PER
                          (F)     (DEG/KT/KT) (MB)    (FT/S) (FT/S)
27.3N   84.2W                 87                N/A     1/ 4
CLEARWATER BEACH           85 90  200/  6/  8 1015.5S
MIDDLE TAMPA BAY           86     280/  6/  9 1015.4F
VENICE                     83 90  150/  4/  6 1015.6S

$$
FLZ066-069-070-075>078-162-262-165-265-280500-
SOUTHWEST FLORIDA AND KEYS

CITY           SKY/WX    TMP DP  RH WIND       PRES   REMARKS
PUNTA GORDA    CLEAR     79  72  79 CALM      30.01S
FT MYERS       CLOUDY    77  74  90 CALM      29.99S
SOUTHWEST INTL CLOUDY    77  74  90 CALM      30.00R
NAPLES         MOCLDY    83  74  74 SE5       29.98F
MARCO ISLAND   CLOUDY    81  73  78 SE6       30.00R
IMMOKALEE      MOCLDY    77  72  83 CALM      30.01S
MARATHON       MOCLDY    85  79  82 CALM      30.00S HX  98
KEY WEST NAS   PTCLDY    83  79  88 E7        30.00F
KEY WEST INTL  CLEAR     86  77  74 SE8       30.00F HX  97

STATION/POSITION SKY/WX   TEMP    WIND        PRES    WAVE   SWELL
                          AIR SEA DIR/SP/G            HT/PER HT/PER
                          (F)     (DEG/KT/KT) (MB)    (FT/S) (FT/S)
NAPLES                        90  150/  3/  4 1015.4F
DRY TORTUGAS               86     120/  4/  5 1015.7F
SAND KEY                   85                 1016.3F

$$
FLZ067-068-071>074-168-172>174-280500-
SOUTHEAST FLORIDA

CITY           SKY/WX    TMP DP  RH WIND       PRES   REMARKS
W PALM BEACH   CLOUDY    84  75  74 SE8       30.00S
FT LAUDER-EXEC PTCLDY    84  75  74 SE7       30.00S
FT LAUDERDALE  PTCLDY    85  77  77 SE7       29.99S HX  95
POMPANO BEACH  PTCLDY    86  77  74 SE5       30.00S HX  97
PEMBROKE PINES RAIN      85  77  77 CALM      30.01F HX  95
OPA LOCKA      LGT RAIN  85  79  82 SE5       30.01S HX  98
MIAMI          MOCLDY    85  75  72 SE6       30.00F
WEST KENDALL   CLEAR     80  76  87 CALM      30.00F
HOMESTEAD      PTCLDY    80  79  96 SW5       29.99F

STATION/POSITION SKY/WX   TEMP    WIND        PRES    WAVE   SWELL
                          AIR SEA DIR/SP/G            HT/PER HT/PER
                          (F)     (DEG/KT/KT) (MB)    (FT/S) (FT/S)
PORT EVERGLADES            85     140/  7/  9 1016.1R
VIRGINIA KEY               85 89  110/  6/  9 1015.4R
LAKE WORTH                        160/ 10/ 12   N/A
FOWEY ROCKS                85 86  110/  6/  7 1016.4R
SETTLEMENT POINT           83     130/  7/  8 1016.0S

$$





USA.gov is the U.S. government's official web portal to all federal, state and local government web resources and services.